Location: Paddlesworth
(51.1000°N, 1.1333°E)
Time: 18:39:22
(UTC+00:00)

BREEZE-M DEB (TANK) - Pass Details

Date: 11 May 2021
Orbit: 287 x 13019 km, 49.6° (Epoch: 19 June)

Event Time Altitude Azimuth Distance (km) Brightness Sun altitude
Rises 19:54:03 0° 278° (W) 2,828 7.3 -3.5°
Reaches altitude 10° 19:55:27 10° 276° (W) 2,240 6.6 -3.7°
Maximum altitude 20:00:13 73° 192° (SSW) 1,424 4.3 -4.3°
Drops below altitude 10° 20:19:16 10° 113° (ESE) 8,098 7.6 -6.7°
Enters shadow 20:27:09 - 114° (ESE) 10,476 8.2 -7.6°
